This is the latest recevied weather packets stored in our database for station/object K2CCS. If no packets are shown the sender has not sent any weather packets the latest 10 day(s).
| Time | Temp. | Humidity | Pressure | Rain* | Wind** | Luminosity | Snow |
|---|---|---|---|---|---|---|---|
| 1777907219 | 15.56° C | 53% | 1012.3 hPa | 0 mm | - | 318 W/m² | - |
| 1777906915 | 15° C | 54% | 1012.6 hPa | 0 mm | - | 312 W/m² | - |
| 1777906613 | 15° C | 55% | 1012.7 hPa | 0 mm | - | 239 W/m² | - |
| 1777906308 | 14.44° C | 56% | 1012.7 hPa | 0 mm | - | 211 W/m² | - |
| 1777906006 | 13.89° C | 56% | 1012.4 hPa | 0 mm | - | 181 W/m² | - |
| 1777905702 | 13.89° C | 56% | 1012.6 hPa | 0 mm | - | 197 W/m² | - |
| 1777905399 | 13.33° C | 57% | 1012.6 hPa | 0 mm | - | 185 W/m² | - |
| 1777905097 | 13.33° C | 58% | 1012.9 hPa | 0 mm | - | 160 W/m² | - |
| 1777904794 | 12.78° C | 59% | 1012.8 hPa | 0 mm | - | 148 W/m² | - |
| 1777904491 | 12.78° C | 60% | 1013.1 hPa | 0 mm | - | 127 W/m² | - |
| 1777904187 | 12.22° C | 60% | 1013.1 hPa | 0 mm | - | 124 W/m² | - |
| 1777903884 | 12.22° C | 60% | 1013 hPa | 0 mm | - | 80 W/m² | - |
| 1777903581 | 12.22° C | 59% | 1013.2 hPa | 0 mm | - | 87 W/m² | - |
| 1777903277 | 12.22° C | 61% | 1013.2 hPa | 0 mm | - | 115 W/m² | - |
| 1777902974 | 12.22° C | 60% | 1013.1 hPa | 0 mm | - | 145 W/m² | - |
| 1777902670 | 12.22° C | 60% | 1013.2 hPa | 0 mm | - | 179 W/m² | - |
| 1777902368 | 12.22° C | 60% | 1013.2 hPa | 0 mm | - | 144 W/m² | - |
| 1777902064 | 12.22° C | 60% | 1012.9 hPa | 0 mm | - | 153 W/m² | - |
| 1777901763 | 11.67° C | 62% | 1012.9 hPa | 0 mm | - | 223 W/m² | - |
| 1777901460 | 11.11° C | 63% | 1012.9 hPa | 0 mm | - | 179 W/m² | - |
| 1777901157 | 11.11° C | 63% | 1013.1 hPa | 0 mm | - | 135 W/m² | - |
| 1777900855 | 10.56° C | 62% | 1013 hPa | 0 mm | - | 146 W/m² | - |
| 1777900552 | 10.56° C | 62% | 1012.9 hPa | 0 mm | - | 155 W/m² | - |
| 1777900249 | 10.56° C | 63% | 1013 hPa | 0 mm | - | 108 W/m² | - |
| 1777899945 | 10° C | 64% | 1012.9 hPa | 0 mm | - | 131 W/m² | - |
* Rain latest hour (hover to see other rain measurements)
** Current wind speed in m/s (hover to see current wind gust speed)